Regional Weather Roundup
Issued by NWS

Home | Current Version | Previous Version | Text Only | Print | Product List | Glossary On
Versions: 1 2 3 4 5 6 7 8 9 10 11 12 13 14 15 16 17 18 19 20 21 22 23 24 25 26 27
000
ASUS44 KLIX 290013
RWRLA
LOUISIANA WEATHER ROUNDUP
NATIONAL WEATHER SERVICE NEW ORLEANS LA
700 PM CDT FRI APR 28 2017

NOTE: "FAIR" INDICATES FEW OR NO CLOUDS BELOW 12,000 FEET WITH NO
      SIGNIFICANT WEATHER AND/OR OBSTRUCTIONS TO VISIBILITY.
      SKY/WX - SKY CONDITION AND SIGNIFICANT WEATHER.
      TMP - AIR TEMPERATURE.    DP   - DEWPOINT TEMPERATURE.
      RH  - RELATIVE HUMIDITY.  PRES - PRESSURE.
      HX  - HEAT INDEX.         WCI  - WIND CHILL INDEX.

*  THESE STATIONS ARE NOT NWS OR FAA STATIONS AND ARE NOT UNDER
   NWS QUALITY CONTROL.

LAZ040-048-061>063-065-066-069-290100-
SOUTHEAST LOUISIANA

CITY           SKY/WX    TMP DP  RH WIND       PRES   REMARKS
N.O. INTL ARPT MOCLDY    81  74  79 SE16      29.87S
6HR MIN TEMP:  81; 6HR MAX TEMP:  85;

N.O. LAKEFRONT MOCLDY    82  75  79 SE20G28   29.88S
6HR MIN TEMP:  82; 6HR MAX TEMP:  87;

N.O. DOWNTOWN*   N/A     82  74  76 S12G24      N/A
6HR MIN TEMP:  82; 6HR MAX TEMP:  85;

RESERVE*       NOT AVBL
SLIDELL        CLOUDY    80  75  84 SE13      29.89S
6HR MIN TEMP:  80; 6HR MAX TEMP:  86;

BATON ROUGE    CLOUDY    83  72  69 SE13      29.83S
6HR MIN TEMP:  83; 6HR MAX TEMP:  89;

BOOTHVILLE     CLOUDY    79  76  90 SE9       29.91R FOG
6HR MIN TEMP:  79; 6HR MAX TEMP:  82;

BELLE CHASSE   CLOUDY    80  75  84 SE12      29.88S
BOGALUSA*      NOT AVBL
GALLIANO*      CLOUDY    79  73  82 SE7       29.87S
6HR MIN TEMP:  79; 6HR MAX TEMP:  84;

NEW ROADS*     CLOUDY    82  73  75 S10G21    29.82S
6HR MIN TEMP:  82; 6HR MAX TEMP:  88;

GONZALES*      CLOUDY    82  73  76 SE10      29.84S
6HR MIN TEMP:  82; 6HR MAX TEMP:  87;

HAMMOND*       CLOUDY    81  70  69 S16       29.87S
HOUMA*         CLOUDY    81  75  83 SE16        N/A  HAZE
PORT FOURCHON* CLEAR     79  75  89 SE15      29.86R FOG

$$

LAZ041-044-053-054-290100-
SOUTHWEST LOUISIANA

CITY           SKY/WX    TMP DP  RH WIND       PRES   REMARKS
LAKE CHARLES   CLOUDY    80  74  81 SE17G25   29.75R HAZE
6HR MIN TEMP:  80; 6HR MAX TEMP:  85;

LAFAYETTE      CLOUDY    84  75  74 S10G21    29.81R
6HR MIN TEMP:  84; 6HR MAX TEMP:  87;

PATTERSON      CLOUDY    79  75  87 SE13      29.84S
6HR MIN TEMP:  79; 6HR MAX TEMP:  83;

SALT POINT       N/A     79  75  87 SE12G21   29.81R
6HR MIN TEMP:  79; 6HR MAX TEMP:  83;

NEW IBERIA     CLOUDY    81  73  76 SE21G29   29.81S
6HR MIN TEMP:  81; 6HR MAX TEMP:  86; 6HR PCP: TRACE;

CHENAULT AIRPK CLOUDY    70  66  88 MISG      29.76R

$$

LAZ027-028-290100-
CENTRAL LOUISIANA

CITY           SKY/WX    TMP DP  RH WIND       PRES   REMARKS
FORT POLK      CLOUDY    81  73  76 SE20G26   29.73S
6HR MIN TEMP:  80; 6HR MAX TEMP:  89; 6HR PCP: TRACE;

ALEXANDRIA INT CLOUDY    82  72  71 S18G28    29.75R
6HR MIN TEMP:  82; 6HR MAX TEMP:  91;

ALEXANDRIA     CLOUDY    82  72  71 S9G23     29.77R
6HR MIN TEMP:  82; 6HR MAX TEMP:  88;


$$

LAZ001-002-290100-
NORTHWEST LOUISIANA

CITY           SKY/WX    TMP DP  RH WIND       PRES   REMARKS
SHREVEPORT     PTSUNNY   85  72  65 S13       29.66R
6HR MIN TEMP:  85; 6HR MAX TEMP:  89;

BARKSDALE AFB  MOSUNNY   84  72  67 S17       29.67R
6HR MIN TEMP:  84; 6HR MAX TEMP:  87;

DTN SHREVEPORT PTSUNNY   86  72  62 S17G28    29.66S
6HR MIN TEMP:  85; 6HR MAX TEMP:  89;


$$

LAZ014-016-290100-
NORTHEAST LOUISIANA

CITY           SKY/WX    TMP DP  RH WIND       PRES   REMARKS
MONROE         MOCLDY    84  72  67 S10G20    29.75R HAZE
6HR MIN TEMP:  84; 6HR MAX TEMP:  88;

TALLULAH       LGT RAIN  84  71  65 S13       29.79R
6HR MIN TEMP:  84; 6HR MAX TEMP:  88; 6HR PCP: TRACE;


$$





USA.gov is the U.S. government's official web portal to all federal, state and local government web resources and services.